CZ-4 DEB, 26162

Orbit data source: Space-Track

CZ-4 DEB, 26162 is space debris in SSO originally from a launch on Thu, 14 Oct 1999 UTC launched from the Taiyaun Space Center, China (TSC). Debris objects in space refer to the collection of defunct objects orbiting the Earth. Examples of debris include non-operational satellites, rocket bodies, and fragments generated from explosions, collisions, or faulty payload assembly.

Loading next visibility...
Identifier
26162, 1999-057AY
Orbit
SSO
Country
Flag of CNCN / PRC
Related business
Manufacturer
Unknown
Mission
Spacecraft
Bus & Motor
Unknown
Mass
Unknown
Launch date (UTC)
1999-10-14 (26 years ago)
Launch vehicle
Unknown
Launch site
Taiyaun Space Center, China (TSC)
Object type
Payload
Rocket body
Debris
Shape & HBR
Unknown shape, 0.1 m
Radar Cross Section
Medium (>0.1 m² and <1 m²)

Expand to show TLE details & history
Last TLE update: 12 hours ago

TLE from 12 hours ago
0 CZ-4 DEB
1 26162U 99057AY  26036.74349703  .00003813  00000-0  15046-2 0  9994
2 26162  99.0947  97.6235 0251397 349.6133   9.9900 14.13897341323887
Epoch: 2026-02-05T17:50Z
TLE epoch observation values (Epoch: 2026-02-05T17:50:38.143Z)
Latitude
-0.00003°
Longitude
54.07323°
Altitude
670.209 km
Speed
7.614 km/s
True Right ascension
06h 30m 29s
True Declination
0° 00' 00"
Sunlit
Object was in full shadow at epoch
Visualization orbit readout
Latitude
Unknown
Longitude
Unknown
Altitude
Unknown
Speed
Unknown
Apparent Right ascension
Unknown
Apparent Declination
Unknown
Sunlit
N/A
Visualization observer readout
Local Sidereal Time
07:38:45
Azimuth
Unknown
Elevation
Unknown
Doppler factor
Unknown
Orbital elements
Apogee altitude
1,024.792 km
Perigee altitude
661.705 km
Semi-major axis
7,221.386 km
Eccentricity
0.02514
Inclination
99.0947°
RAAN
97.6235°
Arg. of periapsis
349.6133°
True anomaly
10.50568°
Mean anomaly
9.99°
Eccentric anomaly
10.24622°
Mean motion
3.53682 °/min
Orbital period
101.79 mins
BSTAR
0.0015046
Loading maneuver chart data...
Computing Atmospheric mass density...
Loading historical data...
Loading historical data...
Loading historical data...
Loading historical data...
Loading historical data...
Loading historical data...
Loading historical data...

Documentation

Showing up to 5 results
|